User: anonymous   Login
Location: Unspecified
(0.0000°N, 0.0000°E)
Time: 21:44:45
(UTC+00:00)
Language:

ISS - Orbit

View from above orbital plane
View from above orbital plane
View from above satellite
View from above satellite

Ground track
Ground track

The orbit data is extracted from the following two-line orbital elements,

1 25544U 98067A   17085.53143370  .00016717  00000-0  10270-3 0  9026
2 25544  51.6391  90.3159 0007604 341.7147  18.3732 15.54267871  8893
Epoch (UTC): 26 March 2017 12:45:15
Eccentricity: 0.0007604
inclination: 51.6391°
perigee height: 399 km
apogee height: 409 km
right ascension of ascending node: 90.3159°
argument of perigee: 341.7147°
revolutions per day: 15.54267871
mean anomaly at epoch: 18.3732°
orbit number at epoch: 889

The dashed part of the orbit path shows where the satellite is in the earth's shadow,  

DLR